SCP
-0 -0 -0 0 0 0 0 0 0 0 0 -0 -0 -0 -0 -0 0 -0 0 0 0 0 0 0 -0 -0 0 0 0 0 0 0 -0 0 -0 -0 -0 0 0 -0 0 0 0 0 -0 -0 0 0 0 0 0 0 0 0
-0 -0 -0 0 0 0 0 0 0 0 0 0 0 -0 0 0 0 0 -0 0 0 0 0 0 0 -0 0 -0 0 0 -0 0 0 -0 -0 -0 -0 -0 0 -0 0 0 0 0 -0 0 0 1 1 2 1 1 2 2
0 0 0 0 0 0 0 0 0 0 0 0 0 0 0 0 0 0 0 0 0 0 0 0 0 0 0 -0 -0 -0 0 0 0 0 0 0 0 0 0 -0 -0 0 0 0 0 0 -0 1 1 1 1 1 1 1
0 0 0 0 0 0 0 0 0 0 0 0 0 0 0 0 0 0 0 0 0 0 0 0 0 0 0 0 0 0 -0 0 0 0 0 0 0 0 0 0 -0 0 0 0 0 -0 -0 1 1 1 1 1 1 1
0 0 0 0 0 0 0 0 0 0 0 0 0 0 0 0 0 0 0 0 0 0 0 0 0 -0 0 0 0 0 0 0 0 0 0 0 0 0 0 0 0 -0 -0 0 0 0 0 0 0 0 0 1 1 0
0 0 0 0 0 0 0 0 0 0 0 0 0 0 0 0 0 0 0 0 0 0 0 0 0 0 0 0 0 0 0 0 0 0 0 0 0 0 0 0 0 0 0 0 0 0 0 0 0 0 0 0 0 0
0 0 0 0 0 0 0 0 0 0 0 0 0 0 0 0 0 0 0 0 0 0 0 0 0 0 0 0 0 0 0 0 0 0 0 0 0 0 0 0 0 0 0 0 0 0 0 0 0 0 0 0 0 0
0 0 0 0 0 0 0 0 0 0 0 0 0 0 0 0 0 0 0 0 0 0 0 0 0 0 0 0 0 0 0 0 0 0 0 0 0 0 0 0 0 0 0 0 0 0 1 2 1 1 1 1 0 0
0 0 0 0 0 0 0 0 0 0 0 0 0 0 0 0 0 0 0 0 0 0 0 0 0 0 0 0 0 0 0 0 0 0 0 0 0 0 0 0 0 0 0 0 0 0 0 0 1 1 1 0 0 0
0 0 0 0 0 0 0 0 0 0 0 0 0 0 0 0 0 0 0 0 0 0 0 0 0 0 0 0 0 0 0 0 0 0 0 0 0 0 0 1 0 0 0 0 0 0 0 0 0 0 0 0 0 0
0 0 0 0 0 0 0 0 0 0 -0 0 0 0 0 0 0 0 0 0 0 0 0 -0 0 0 0 0 -0 0 0 0 0 0 0 0 0 1 1 1 1 0 0 0 0 0 0 0 0 0 0 0 1 1
0 0 0 0 0 0 0 0 0 0 0 0 0 0 0 0 0 0 0 0 0 0 0 0 0 -0 0 0 0 0 0 0 0 0 0 0 1 1 1 0 0 0 0 0 0 0 0 0 0 0 0 1 1 1
0 0 0 0 0 0 0 -0 0 0 0 0 0 0 0 0 0 0 0 0 0 0 0 0 0 0 0 0 0 0 0 0 0 0 0 0 0 0 0 0 0 0 0 0 0 0 0 0 0 0 0 1 1 1
-0 0 0 0 0 0 0 -0 -0 0 0 0 0 0 0 0 0 0 0 0 0 0 0 0 0 0 0 0 0 0 0 0 0 0 0 1 0 0 0 0 0 0 0 0 0 0 0 0 0 0 0 0 0 0
-0 -0 0 0 0 0 -0 -0 -0 0 0 0 0 0 0 0 0 0 0 0 0 0 0 0 0 0 0 0 0 0 0 0 0 0 0 0 0 0 0 0 0 0 0 0 0 0 1 0 0 0 0 0 0 0
0 0 0 0 0 0 -0 0 0 0 0 0 0 0 0 0 0 0 0 0 0 0 0 0 0 0 0 0 0 0 0 0 0 0 0 0 0 0 0 0 0 0 0 0 0 0 0 0 0 1 1 0 0 0
0 0 0 0 0 0 -0 0 0 0 0 0 0 0 0 0 0 0 0 0 0 0 0 0 0 0 0 0 0 0 0 0 0 0 0 0 0 0 0 0 0 0 0 0 0 0 0 1 1 1 1 0 0 0
0 0 0 0 0 0 0 0 0 0 0 0 0 0 0 0 0 0 0 0 0 0 0 0 0 0 0 0 0 0 0 0 0 0 0 0 0 0 0 0 0 0 0 0 0 0 1 0 1 1 1 0 0 0
0 0 0 0 0 0 0 0 0 0 0 0 0 0 0 0 0 0 0 0 0 0 0 0 0 0 0 0 0 0 0 0 0 0 0 0 0 0 0 0 0 0 0 0 0 1 1 1 0 1 2 0 0 0
-0 -0 -0 0 0 0 0 0 0 0 0 0 0 0 0 0 0 0 0 0 0 0 0 0 0 0 -0 -0 -0 0 0 0 0 0 0 0 0 0 0 0 0 0 0 0 0 0 0 0 0 0 0 0 0 0
0 0 0 0 0 0 0 0 0 0 0 0 0 0 0 0 0 0 0 0 0 0 0 0 0 -0 0 0 -0 -0 0 0 0 0 0 0 0 0 0 0 0 0 0 0 0 0 0 0 0 0 0 0 0 -0
0 0 0 0 0 0 0 0 0 0 0 0 0 0 0 0 0 0 0 0 0 0 0 0 0 -0 -0 -0 -0 -0 -0 -0 -0 0 0 0 0 0 0 0 0 0 0 0 0 0 0 0 0 -0 -0 -0 -0 0
0 0 0 0 0 0 0 0 0 0 0 0 0 0 0 0 0 0 0 0 0 0 0 0 0 0 -0 -0 -0 -0 -0 -0 -0 -0 -0 0 0 0 0 0 0 0 0 0 0 0 0 0 -0 -0 0 0 0 0
0 0 0 0 0 0 0 0 0 0 0 0 0 0 0 0 0 0 0 0 0 0 0 0 0 -0 0 0 0 0 0 0 0 0 -0 0 -0 -0 -0 -0 -0 0 0 0 0 0 0 0 0 0 0 -0 -0 -0
0 0 0 0 0 0 0 0 0 0 0 0 0 0 0 0 0 0 0 0 0 0 0 0 0 -0 -0 0 -0 0 -0 0 0 -0 -0 -0 0 0 0 0 -0 0 0 0 0 0 0 0 0 0 0 0 0 0
0 0 0 0 0 0 0 0 0 0 0 0 0 0 0 0 0 0 0 -0 0 0 0 0 0 -0 -0 -0 -0 -0 -0 0 -0 0 0 0 -0 0 -0 -0 -0 0 0 -0 0 0 0 0 0 0 0 0 -0 -0
0 0 0 0 -0 0 -0 -0 0 0 0 0 0 0 0 0 0 0 0 -0 -0 -0 0 0 0 -0 0 0 0 0 -0 -0 0 0 0 -0 -0 -0 -0 -0 -0 0 0 0 0 0 0 0 -0 -0 0 -0 0 0
0 0 0 0 0 -0 -0 -0 0 0 0 0 0 0 0 0 0 0 0 0 0 0 -0 0 0 0 -0 -0 0 0 0 0 0 0 0 0 0 0 0 0 -0 -0 -0 -0 -0 -0 -0 -0 -0 -0 -0 -0 0 0
0 0 0 0 0 -0 -0 0 0 0 0 0 0 0 0 0 0 0 0 0 -0 -0 -0 -0 -0 -0 -0 0 0 -0 0 -0 -0 0 0 0 0 0 -0 -0 -0 -0 0 0 -0 -0 -0 -0 -0 -0 0 0 0 0
0 -0 0 0 -0 -0 -0 0 0 0 0 0 0 0 0 0 0 0 0 0 -0 -0 0 0 0 0 0 0 0 -0 -0 -0 -0 0 -0 0 0 0 0 0 0 -0 0 -0 0 0 -0 -0 0 0 0 0 0 0
0 0 0 0 -0 -0 -0 0 0 0 0 0 0 0 0 0 -0 -0 -0 0 0 0 -0 0 -0 -0 -0 -0 0 -0 -0 -0 -0 -0 -0 -0 -0 -0 -0 -0 -0 0 0 0 0 0 0 0 0 0 0 0 0 0
0 0 0 0 -0 0 0 -0 0 0 0 0 0 0 0 0 0 0 0 -0 0 0 0 0 -0 -0 -0 0 -0 -0 -0 -0 -0 0 0 -0 -0 0 0 0 0 0 0 0 0 0 -0 -0 0 0 0 0 0 0
-0 -0 0 -0 -0 0 0 0 0 0 0 0 0 -0 -0 -0 -0 -0 -0 0 -0 -0 -0 -0 0 -0 -0 0 -0 -0 -0 -0 -0 -0 -0 -0 -0 -0 -0 0 0 0 0 0 0 0 0 0 0 0 0 0 0 0
Wind_Speed_500mb
26 28 29 31 33 34 36 38 39 41 42 38 32 29 27 28 26 21 12 18 12 24 52 50 44 46 34 35 21 2 12 24 21 27 31 31 30 6 16 57 21 27 7 2 35 35 37 24 26 24 4 4 28 31
27 28 29 31 33 35 36 37 38 39 40 40 37 35 33 32 32 25 10 16 18 23 38 53 57 57 49 45 40 35 36 25 8 19 20 20 9 13 15 15 27 24 13 10 8 24 84 10 8 17 13 19 18 27
30 31 32 32 33 35 37 38 38 40 40 41 42 42 41 37 34 31 20 19 23 26 54 33 29 24 27 47 45 48 40 31 33 28 23 12 10 13 28 38 24 9 54 15 16 47 70 25 20 17 23 23 18 21
31 33 34 36 36 37 39 40 41 42 44 46 48 47 43 40 38 38 29 13 14 18 14 6 6 11 18 19 30 44 57 37 29 31 29 20 14 14 26 23 8 12 18 26 21 52 53 21 26 21 20 17 18 16
32 36 37 39 39 40 42 43 43 43 47 49 46 42 40 39 37 37 34 31 25 16 16 32 52 35 33 34 31 36 42 46 46 27 22 22 32 2 27 20 14 33 12 11 2 22 20 24 19 13 12 13 12 12
31 37 39 42 43 41 44 45 45 48 50 47 48 46 42 37 32 19 8 6 11 24 11 9 19 24 20 20 21 24 37 36 39 39 29 41 42 4 17 16 32 12 15 15 19 16 11 9 16 15 17 13 10 7
33 34 38 42 46 45 45 46 46 51 46 48 48 46 39 31 20 7 7 3 5 13 7 14 12 17 22 21 21 24 29 34 34 36 37 38 36 21 20 30 26 5 4 6 12 2 7 5 8 12 9 9 9 6
33 34 39 43 47 47 48 48 49 44 42 45 43 31 20 7 7 2 15 13 11 7 10 9 12 21 23 23 18 18 20 31 28 34 30 24 38 39 24 30 45 37 12 9 17 11 12 7 4 10 8 8 9 9
33 33 36 42 48 50 50 51 44 42 37 38 24 11 13 11 0 5 11 14 16 11 10 12 23 10 20 24 18 17 21 14 24 17 25 23 18 19 16 40 30 29 36 21 15 9 9 11 13 14 15 16 16 13
33 33 36 41 48 51 50 48 44 35 33 19 9 3 1 3 5 5 2 5 7 9 10 12 40 27 36 23 15 10 9 12 11 20 26 23 22 19 26 9 4 8 12 18 22 22 18 18 16 21 22 21 18 15
32 31 35 39 47 50 51 38 40 38 16 12 6 4 6 11 6 4 6 9 5 6 5 17 30 22 32 16 5 10 4 6 7 9 8 10 23 11 13 4 4 9 18 26 31 34 34 33 34 28 25 21 19 20
31 31 33 40 47 48 37 42 37 28 13 13 11 11 6 8 13 9 6 7 6 5 9 9 19 28 21 11 7 11 7 9 7 6 3 8 5 13 5 2 4 10 15 21 25 32 35 35 36 31 27 26 25 26
32 31 34 40 46 39 34 37 32 25 15 2 3 5 9 7 3 10 4 5 4 10 10 11 13 8 10 6 11 7 8 9 0 4 12 7 11 12 9 8 10 14 17 19 22 25 31 36 35 35 31 30 31 28
35 33 33 39 36 29 36 29 25 15 1 9 9 6 8 8 7 6 8 12 20 21 26 22 18 9 10 7 7 7 8 6 6 6 4 11 10 9 10 12 15 19 22 22 22 23 24 31 36 36 35 36 34 31
29 29 33 30 26 33 31 25 19 9 5 9 7 7 8 9 18 23 11 15 20 24 29 24 23 25 10 10 9 7 7 10 10 4 5 13 7 11 15 18 22 23 24 24 23 22 18 25 34 38 39 36 34 32
25 29 22 25 34 32 25 27 15 7 7 9 11 14 18 14 8 21 17 26 23 25 28 22 9 8 11 7 7 12 9 3 5 6 12 12 9 14 18 22 25 26 26 28 27 23 24 28 39 43 38 37 35 33
23 16 25 34 35 30 25 16 6 6 9 8 16 18 20 19 14 23 25 17 22 26 8 9 8 5 9 7 6 9 7 7 10 11 11 13 17 22 23 25 25 28 29 30 29 26 28 32 39 46 43 37 34 29
19 19 31 33 28 23 13 7 6 10 15 23 18 8 14 20 28 28 21 14 15 14 13 6 11 8 8 8 6 3 17 20 22 25 26 22 24 29 28 30 29 30 30 29 27 28 24 33 44 48 47 41 34 28
22 27 30 30 19 11 7 8 10 11 19 16 12 14 13 18 22 20 16 13 9 12 9 8 7 5 5 9 22 37 39 38 37 31 33 31 31 33 32 31 31 32 28 28 22 20 18 31 44 51 48 41 36 34
26 25 27 17 11 5 8 9 10 11 14 6 14 18 19 12 11 11 11 18 13 6 4 4 4 12 25 41 39 39 39 34 32 34 34 29 28 26 27 28 29 28 25 18 12 15 21 37 38 58 54 46 41 33
20 12 8 10 9 13 11 9 14 16 18 14 17 13 13 6 10 7 8 12 13 7 7 11 26 38 32 36 37 34 32 29 29 31 34 34 31 30 31 32 31 28 21 13 13 32 50 55 43 30 40 40 30 36
11 13 5 13 8 8 12 16 15 12 12 22 18 13 3 7 15 3 2 4 8 2 6 20 29 36 45 32 19 15 21 28 26 24 23 23 20 12 9 15 16 10 15 19 22 44 55 55 61 56 37 29 35 27
10 5 6 11 8 9 14 12 11 9 8 7 12 5 5 5 3 5 2 7 7 6 12 25 28 51 47 56 57 61 62 62 58 54 44 44 40 38 34 30 18 21 25 11 52 56 58 52 52 43 30 35 37 22
7 6 9 11 18 11 11 14 14 12 8 8 5 6 1 3 7 6 6 5 14 15 10 7 19 25 30 49 45 52 55 65 65 70 61 65 69 66 62 66 65 54 54 60 63 56 34 36 25 14 19 27 28 36
7 9 10 13 14 12 11 16 16 13 8 11 13 3 5 9 5 6 7 12 22 12 4 5 4 13 24 15 21 21 21 26 29 30 33 37 45 50 63 69 60 47 49 51 54 48 39 19 9 22 24 22 17 13
9 14 15 13 16 11 9 7 5 8 8 6 6 4 3 5 7 5 7 23 17 14 10 13 9 15 18 12 10 9 9 8 12 19 22 23 34 42 33 26 23 20 23 31 28 22 22 20 22 23 24 17 14 5
9 13 19 19 14 10 10 11 7 6 3 6 5 3 6 7 4 5 15 13 16 12 7 6 7 14 16 20 16 16 20 23 25 27 29 31 29 27 30 33 35 32 29 28 27 24 22 19 15 13 14 14 10 5
16 11 19 23 23 23 12 10 7 7 5 3 7 3 5 7 5 9 16 14 12 11 9 8 7 5 8 6 6 11 18 28 23 24 29 29 28 28 30 34 35 31 27 24 23 20 18 17 15 15 13 13 9 5
17 19 21 21 18 16 15 11 8 12 5 1 2 7 9 8 10 18 18 17 17 17 12 11 9 10 10 7 8 30 7 5 28 26 21 26 27 28 26 27 27 28 29 33 39 38 26 22 23 20 17 16 15 15
25 24 20 23 22 15 16 12 6 4 3 8 7 9 3 8 8 15 21 18 20 16 12 5 3 4 9 9 12 16 28 25 15 16 23 21 24 23 23 25 27 28 27 25 24 26 27 29 26 23 21 20 19 18
9 23 22 27 22 20 16 12 5 4 5 5 6 4 8 16 17 19 23 19 16 11 12 6 9 5 11 14 12 16 18 16 19 19 19 20 20 20 20 21 23 26 28 28 26 25 25 27 27 26 25 23 20 20
18 21 20 18 7 15 7 13 11 10 13 9 4 7 13 12 11 16 22 26 21 18 13 10 16 17 10 10 11 13 14 15 16 18 14 15 14 12 12 15 18 20 23 25 27 26 24 24 25 26 27 26 23 19
21 23 25 7 5 11 10 6 3 9 14 11 8 10 15 16 10 15 16 25 25 25 20 18 15 18 14 11 12 13 13 12 10 13 14 13 10 7 8 8 11 13 13 15 17 19 20 18 18 18 20 19 18 15
Wind_Direction_500mb
337 337 339 342 346 349 351 352 355 357 359 357 354 352 346 342 342 345 278 290 276 279 281 279 275 267 269 250 262 340 268 237 256 226 254 263 263 353 155 249 238 227 195 309 256 221 242 225 134 201 195 275 216 153
334 333 333 333 336 339 340 342 344 345 346 348 346 340 337 335 334 335 330 285 291 258 267 284 274 257 246 249 277 277 264 305 259 252 271 279 334 10 5 280 258 231 155 123 75 316 302 305 63 89 119 113 104 122
336 334 333 331 330 330 329 331 334 334 334 334 333 329 325 322 321 320 290 279 299 285 299 264 270 264 246 230 237 252 253 261 267 283 301 285 279 202 221 216 235 195 142 124 100 309 294 108 110 117 120 127 126 128
335 334 332 331 330 327 326 326 328 328 327 324 321 316 312 310 310 312 291 298 262 295 280 320 295 210 237 234 247 234 240 260 264 262 271 266 255 249 273 301 20 0 47 326 200 206 259 99 107 111 106 118 114 109
322 327 331 331 326 325 327 326 325 325 324 322 321 318 314 309 308 306 294 272 235 248 310 304 297 280 253 243 232 237 231 234 244 254 249 249 260 134 259 261 262 241 180 218 187 19 303 113 119 117 116 106 109 112
309 321 321 326 327 325 326 327 327 327 327 324 321 319 315 307 303 309 293 288 233 205 289 292 318 274 239 219 233 231 219 222 231 239 249 263 256 258 277 283 289 270 303 331 350 20 341 66 117 133 129 135 132 135
302 315 320 325 328 326 327 327 326 326 322 320 319 316 312 300 279 212 345 165 315 187 256 286 273 186 226 232 233 223 216 220 225 237 244 257 258 229 260 271 266 175 219 337 311 258 204 188 141 131 137 147 149 145
305 307 316 324 326 325 327 327 326 326 322 321 324 330 343 348 107 157 261 303 263 233 258 277 274 262 191 221 222 200 213 209 216 237 237 231 236 244 254 273 274 278 268 262 299 282 278 46 146 167 182 182 187 187
301 302 313 319 326 327 327 328 330 331 328 329 335 356 32 52 127 240 265 258 193 214 286 258 279 335 317 249 157 212 218 215 234 216 236 240 227 228 230 237 259 258 260 276 293 264 254 217 212 220 216 214 220 218
295 302 309 316 324 326 327 328 331 335 334 351 22 310 99 245 312 283 330 153 216 216 243 264 280 278 287 319 332 163 252 250 219 220 234 229 249 257 205 177 250 301 288 263 266 259 238 250 251 241 228 227 227 219
293 299 308 315 321 325 326 324 333 338 13 341 288 1 273 282 310 250 229 230 151 254 294 296 302 311 307 326 309 254 239 249 228 247 235 250 232 129 122 185 247 277 275 267 261 256 258 258 238 235 227 224 205 189
289 296 308 314 321 322 322 329 332 344 305 292 247 256 224 234 235 243 201 173 227 227 229 229 293 313 289 299 273 257 226 203 256 129 163 258 65 115 119 48 343 306 300 284 271 259 253 251 249 244 221 206 189 178
283 294 305 313 319 319 321 324 328 332 318 291 2 246 208 244 347 248 242 209 223 224 242 251 288 284 302 318 272 290 257 262 18 205 214 130 133 76 39 4 338 323 317 309 293 275 259 246 232 229 207 199 183 172
279 294 304 313 314 313 320 318 326 331 345 248 226 269 245 230 233 310 319 286 272 281 286 287 287 239 227 224 235 236 272 295 249 259 320 103 77 48 15 357 339 329 325 320 310 295 267 233 217 209 198 189 184 176
279 298 306 310 311 319 317 314 317 296 260 257 238 247 218 296 358 310 331 299 293 282 299 295 268 234 227 239 267 252 216 219 214 91 95 111 63 7 353 345 338 331 325 316 309 297 267 221 205 192 188 180 181 172
291 307 309 313 319 321 309 313 296 256 247 247 241 255 248 276 300 268 333 333 343 328 313 279 267 251 232 260 263 233 260 354 59 64 6 2 8 336 330 328 327 322 316 307 297 287 261 227 199 187 177 176 173 169
298 305 300 311 320 314 310 298 258 234 257 243 235 247 292 298 293 308 328 321 323 319 339 304 263 278 294 247 237 348 354 358 330 305 294 306 307 310 310 309 312 310 304 303 295 269 253 216 197 173 166 170 165 162
293 289 293 310 318 314 304 224 253 244 237 235 249 253 297 300 298 327 323 322 315 327 321 315 308 272 279 300 329 338 303 297 297 296 293 297 297 300 298 295 297 300 294 300 296 267 258 217 190 172 165 163 157 153
285 277 290 298 297 305 255 228 223 261 247 271 279 283 277 304 327 330 324 328 324 319 315 299 273 294 278 343 338 325 320 322 319 313 304 296 286 288 291 290 292 290 284 292 292 266 240 206 186 165 151 146 149 147
294 290 292 272 267 249 248 224 224 259 275 312 275 271 296 332 317 346 358 4 4 21 356 307 304 303 299 307 305 294 297 302 298 297 293 289 293 297 290 283 284 288 281 290 278 216 167 145 150 139 143 142 137 139
310 302 281 272 264 224 261 260 229 246 288 274 279 287 303 315 294 273 21 41 47 15 342 315 319 323 306 295 286 286 289 291 285 283 286 292 295 297 289 283 282 280 260 250 190 175 162 149 143 151 143 126 135 172
261 270 244 288 230 251 258 234 257 318 268 271 288 266 260 254 262 92 3 70 76 18 323 339 346 346 339 359 339 299 292 289 288 284 288 293 300 307 336 304 285 243 270 247 219 185 167 163 160 166 182 202 173 148
254 249 235 224 236 239 263 217 244 235 245 259 258 193 209 221 252 175 25 49 87 149 26 50 54 43 37 45 56 78 71 77 83 79 80 79 77 70 82 89 98 103 56 145 177 173 157 160 173 189 170 161 162 169
224 224 236 216 204 254 217 217 219 268 255 264 265 269 95 185 233 234 162 121 142 134 161 124 34 39 56 62 72 73 77 84 80 76 73 70 77 73 70 75 77 77 65 70 86 97 106 126 150 162 148 164 176 195
244 231 211 243 222 226 247 229 219 231 255 244 275 59 256 164 231 219 151 150 111 103 162 135 319 49 65 62 70 71 73 54 56 62 65 71 82 81 86 86 76 75 79 79 82 86 95 110 112 117 104 88 107 125
240 210 200 218 206 210 233 236 211 239 261 282 246 227 261 192 236 153 167 134 138 123 151 149 144 79 65 61 49 56 75 58 77 62 67 88 81 72 71 71 68 67 89 81 75 76 83 78 63 73 93 90 97 105
249 232 209 234 275 240 258 261 249 284 222 251 265 252 224 241 144 145 145 146 133 115 107 108 53 84 85 88 78 74 83 85 95 85 87 88 90 92 91 82 67 61 61 63 69 72 71 74 78 85 107 109 97 63
243 263 238 217 215 242 237 270 207 249 236 146 329 293 255 8 71 161 164 160 145 145 120 112 119 82 82 91 143 157 112 110 106 105 96 89 83 79 74 67 55 57 65 74 67 67 71 74 75 76 75 74 71 43
231 225 227 251 226 220 222 221 226 243 192 175 256 322 342 15 163 167 159 163 165 180 164 133 135 151 120 97 33 115 149 147 114 116 104 97 86 75 72 72 63 55 50 51 59 63 73 81 77 74 76 76 67 61
232 229 218 223 222 218 230 199 277 257 260 339 306 280 211 198 173 162 168 167 175 174 155 138 196 103 137 146 98 89 110 88 116 111 107 104 96 83 75 69 63 56 52 58 61 61 68 70 68 71 72 71 70 70
224 198 217 236 215 216 214 218 205 223 234 288 334 355 127 153 163 176 182 177 177 186 180 179 169 110 103 87 88 108 94 89 95 101 107 106 96 86 73 64 59 53 51 58 65 72 75 73 68 64 62 63 62 62
211 216 208 229 198 167 185 215 199 198 226 210 179 150 153 158 148 181 191 191 195 196 197 177 166 145 130 107 101 72 89 109 110 119 120 108 103 88 81 74 64 58 61 64 64 68 73 72 67 61 58 60 62 65
215 206 222 204 165 167 218 194 186 244 254 233 182 215 167 175 182 175 192 193 196 199 190 187 152 171 145 119 121 109 114 116 132 143 142 130 124 107 64 50 53 53 62 63 69 70 71 71 69 65 60 58 57 58
Wind_Speed_850mb
26 28 29 31 33 34 36 38 39 41 42 38 32 29 27 28 26 21 12 18 12 24 52 50 44 46 34 35 21 2 12 24 21 27 31 31 30 6 16 57 21 27 7 2 35 35 37 24 26 24 4 4 28 31
27 28 29 31 33 35 36 37 38 39 40 40 37 35 33 32 32 25 10 16 18 23 38 53 57 57 49 45 40 35 36 25 8 19 20 20 9 13 15 15 27 24 13 10 8 24 84 10 8 17 13 19 18 27
30 31 32 32 33 35 37 38 38 40 40 41 42 42 41 37 34 31 20 19 23 26 54 33 29 24 27 47 45 48 40 31 33 28 23 12 10 13 28 38 24 9 54 15 16 47 70 25 20 17 23 23 18 21
31 33 34 36 36 37 39 40 41 42 44 46 48 47 43 40 38 38 29 13 14 18 14 6 6 11 18 19 30 44 57 37 29 31 29 20 14 14 26 23 8 12 18 26 21 52 53 21 26 21 20 17 18 16
32 36 37 39 39 40 42 43 43 43 47 49 46 42 40 39 37 37 34 31 25 16 16 32 52 35 33 34 31 36 42 46 46 27 22 22 32 2 27 20 14 33 12 11 2 22 20 24 19 13 12 13 12 12
31 37 39 42 43 41 44 45 45 48 50 47 48 46 42 37 32 19 8 6 11 24 11 9 19 24 20 20 21 24 37 36 39 39 29 41 42 4 17 16 32 12 15 15 19 16 11 9 16 15 17 13 10 7
33 34 38 42 46 45 45 46 46 51 46 48 48 46 39 31 20 7 7 3 5 13 7 14 12 17 22 21 21 24 29 34 34 36 37 38 36 21 20 30 26 5 4 6 12 2 7 5 8 12 9 9 9 6
33 34 39 43 47 47 48 48 49 44 42 45 43 31 20 7 7 2 15 13 11 7 10 9 12 21 23 23 18 18 20 31 28 34 30 24 38 39 24 30 45 37 12 9 17 11 12 7 4 10 8 8 9 9
33 33 36 42 48 50 50 51 44 42 37 38 24 11 13 11 0 5 11 14 16 11 10 12 23 10 20 24 18 17 21 14 24 17 25 23 18 19 16 40 30 29 36 21 15 9 9 11 13 14 15 16 16 13
33 33 36 41 48 51 50 48 44 35 33 19 9 3 1 3 5 5 2 5 7 9 10 12 40 27 36 23 15 10 9 12 11 20 26 23 22 19 26 9 4 8 12 18 22 22 18 18 16 21 22 21 18 15
32 31 35 39 47 50 51 38 40 38 16 12 6 4 6 11 6 4 6 9 5 6 5 17 30 22 32 16 5 10 4 6 7 9 8 10 23 11 13 4 4 9 18 26 31 34 34 33 34 28 25 21 19 20
31 31 33 40 47 48 37 42 37 28 13 13 11 11 6 8 13 9 6 7 6 5 9 9 19 28 21 11 7 11 7 9 7 6 3 8 5 13 5 2 4 10 15 21 25 32 35 35 36 31 27 26 25 26
32 31 34 40 46 39 34 37 32 25 15 2 3 5 9 7 3 10 4 5 4 10 10 11 13 8 10 6 11 7 8 9 0 4 12 7 11 12 9 8 10 14 17 19 22 25 31 36 35 35 31 30 31 28
35 33 33 39 36 29 36 29 25 15 1 9 9 6 8 8 7 6 8 12 20 21 26 22 18 9 10 7 7 7 8 6 6 6 4 11 10 9 10 12 15 19 22 22 22 23 24 31 36 36 35 36 34 31
29 29 33 30 26 33 31 25 19 9 5 9 7 7 8 9 18 23 11 15 20 24 29 24 23 25 10 10 9 7 7 10 10 4 5 13 7 11 15 18 22 23 24 24 23 22 18 25 34 38 39 36 34 32
25 29 22 25 34 32 25 27 15 7 7 9 11 14 18 14 8 21 17 26 23 25 28 22 9 8 11 7 7 12 9 3 5 6 12 12 9 14 18 22 25 26 26 28 27 23 24 28 39 43 38 37 35 33
23 16 25 34 35 30 25 16 6 6 9 8 16 18 20 19 14 23 25 17 22 26 8 9 8 5 9 7 6 9 7 7 10 11 11 13 17 22 23 25 25 28 29 30 29 26 28 32 39 46 43 37 34 29
19 19 31 33 28 23 13 7 6 10 15 23 18 8 14 20 28 28 21 14 15 14 13 6 11 8 8 8 6 3 17 20 22 25 26 22 24 29 28 30 29 30 30 29 27 28 24 33 44 48 47 41 34 28
22 27 30 30 19 11 7 8 10 11 19 16 12 14 13 18 22 20 16 13 9 12 9 8 7 5 5 9 22 37 39 38 37 31 33 31 31 33 32 31 31 32 28 28 22 20 18 31 44 51 48 41 36 34
26 25 27 17 11 5 8 9 10 11 14 6 14 18 19 12 11 11 11 18 13 6 4 4 4 12 25 41 39 39 39 34 32 34 34 29 28 26 27 28 29 28 25 18 12 15 21 37 38 58 54 46 41 33
20 12 8 10 9 13 11 9 14 16 18 14 17 13 13 6 10 7 8 12 13 7 7 11 26 38 32 36 37 34 32 29 29 31 34 34 31 30 31 32 31 28 21 13 13 32 50 55 43 30 40 40 30 36
11 13 5 13 8 8 12 16 15 12 12 22 18 13 3 7 15 3 2 4 8 2 6 20 29 36 45 32 19 15 21 28 26 24 23 23 20 12 9 15 16 10 15 19 22 44 55 55 61 56 37 29 35 27
10 5 6 11 8 9 14 12 11 9 8 7 12 5 5 5 3 5 2 7 7 6 12 25 28 51 47 56 57 61 62 62 58 54 44 44 40 38 34 30 18 21 25 11 52 56 58 52 52 43 30 35 37 22
7 6 9 11 18 11 11 14 14 12 8 8 5 6 1 3 7 6 6 5 14 15 10 7 19 25 30 49 45 52 55 65 65 70 61 65 69 66 62 66 65 54 54 60 63 56 34 36 25 14 19 27 28 36
7 9 10 13 14 12 11 16 16 13 8 11 13 3 5 9 5 6 7 12 22 12 4 5 4 13 24 15 21 21 21 26 29 30 33 37 45 50 63 69 60 47 49 51 54 48 39 19 9 22 24 22 17 13
9 14 15 13 16 11 9 7 5 8 8 6 6 4 3 5 7 5 7 23 17 14 10 13 9 15 18 12 10 9 9 8 12 19 22 23 34 42 33 26 23 20 23 31 28 22 22 20 22 23 24 17 14 5
9 13 19 19 14 10 10 11 7 6 3 6 5 3 6 7 4 5 15 13 16 12 7 6 7 14 16 20 16 16 20 23 25 27 29 31 29 27 30 33 35 32 29 28 27 24 22 19 15 13 14 14 10 5
16 11 19 23 23 23 12 10 7 7 5 3 7 3 5 7 5 9 16 14 12 11 9 8 7 5 8 6 6 11 18 28 23 24 29 29 28 28 30 34 35 31 27 24 23 20 18 17 15 15 13 13 9 5
17 19 21 21 18 16 15 11 8 12 5 1 2 7 9 8 10 18 18 17 17 17 12 11 9 10 10 7 8 30 7 5 28 26 21 26 27 28 26 27 27 28 29 33 39 38 26 22 23 20 17 16 15 15
25 24 20 23 22 15 16 12 6 4 3 8 7 9 3 8 8 15 21 18 20 16 12 5 3 4 9 9 12 16 28 25 15 16 23 21 24 23 23 25 27 28 27 25 24 26 27 29 26 23 21 20 19 18
9 23 22 27 22 20 16 12 5 4 5 5 6 4 8 16 17 19 23 19 16 11 12 6 9 5 11 14 12 16 18 16 19 19 19 20 20 20 20 21 23 26 28 28 26 25 25 27 27 26 25 23 20 20
18 21 20 18 7 15 7 13 11 10 13 9 4 7 13 12 11 16 22 26 21 18 13 10 16 17 10 10 11 13 14 15 16 18 14 15 14 12 12 15 18 20 23 25 27 26 24 24 25 26 27 26 23 19
21 23 25 7 5 11 10 6 3 9 14 11 8 10 15 16 10 15 16 25 25 25 20 18 15 18 14 11 12 13 13 12 10 13 14 13 10 7 8 8 11 13 13 15 17 19 20 18 18 18 20 19 18 15
Wind_Direction_850mb
337 337 339 342 346 349 351 352 355 357 359 357 354 352 346 342 342 345 278 290 276 279 281 279 275 267 269 250 262 340 268 237 256 226 254 263 263 353 155 249 238 227 195 309 256 221 242 225 134 201 195 275 216 153
334 333 333 333 336 339 340 342 344 345 346 348 346 340 337 335 334 335 330 285 291 258 267 284 274 257 246 249 277 277 264 305 259 252 271 279 334 10 5 280 258 231 155 123 75 316 302 305 63 89 119 113 104 122
336 334 333 331 330 330 329 331 334 334 334 334 333 329 325 322 321 320 290 279 299 285 299 264 270 264 246 230 237 252 253 261 267 283 301 285 279 202 221 216 235 195 142 124 100 309 294 108 110 117 120 127 126 128
335 334 332 331 330 327 326 326 328 328 327 324 321 316 312 310 310 312 291 298 262 295 280 320 295 210 237 234 247 234 240 260 264 262 271 266 255 249 273 301 20 0 47 326 200 206 259 99 107 111 106 118 114 109
322 327 331 331 326 325 327 326 325 325 324 322 321 318 314 309 308 306 294 272 235 248 310 304 297 280 253 243 232 237 231 234 244 254 249 249 260 134 259 261 262 241 180 218 187 19 303 113 119 117 116 106 109 112
309 321 321 326 327 325 326 327 327 327 327 324 321 319 315 307 303 309 293 288 233 205 289 292 318 274 239 219 233 231 219 222 231 239 249 263 256 258 277 283 289 270 303 331 350 20 341 66 117 133 129 135 132 135
302 315 320 325 328 326 327 327 326 326 322 320 319 316 312 300 279 212 345 165 315 187 256 286 273 186 226 232 233 223 216 220 225 237 244 257 258 229 260 271 266 175 219 337 311 258 204 188 141 131 137 147 149 145
305 307 316 324 326 325 327 327 326 326 322 321 324 330 343 348 107 157 261 303 263 233 258 277 274 262 191 221 222 200 213 209 216 237 237 231 236 244 254 273 274 278 268 262 299 282 278 46 146 167 182 182 187 187
301 302 313 319 326 327 327 328 330 331 328 329 335 356 32 52 127 240 265 258 193 214 286 258 279 335 317 249 157 212 218 215 234 216 236 240 227 228 230 237 259 258 260 276 293 264 254 217 212 220 216 214 220 218
295 302 309 316 324 326 327 328 331 335 334 351 22 310 99 245 312 283 330 153 216 216 243 264 280 278 287 319 332 163 252 250 219 220 234 229 249 257 205 177 250 301 288 263 266 259 238 250 251 241 228 227 227 219
293 299 308 315 321 325 326 324 333 338 13 341 288 1 273 282 310 250 229 230 151 254 294 296 302 311 307 326 309 254 239 249 228 247 235 250 232 129 122 185 247 277 275 267 261 256 258 258 238 235 227 224 205 189
289 296 308 314 321 322 322 329 332 344 305 292 247 256 224 234 235 243 201 173 227 227 229 229 293 313 289 299 273 257 226 203 256 129 163 258 65 115 119 48 343 306 300 284 271 259 253 251 249 244 221 206 189 178
283 294 305 313 319 319 321 324 328 332 318 291 2 246 208 244 347 248 242 209 223 224 242 251 288 284 302 318 272 290 257 262 18 205 214 130 133 76 39 4 338 323 317 309 293 275 259 246 232 229 207 199 183 172
279 294 304 313 314 313 320 318 326 331 345 248 226 269 245 230 233 310 319 286 272 281 286 287 287 239 227 224 235 236 272 295 249 259 320 103 77 48 15 357 339 329 325 320 310 295 267 233 217 209 198 189 184 176
279 298 306 310 311 319 317 314 317 296 260 257 238 247 218 296 358 310 331 299 293 282 299 295 268 234 227 239 267 252 216 219 214 91 95 111 63 7 353 345 338 331 325 316 309 297 267 221 205 192 188 180 181 172
291 307 309 313 319 321 309 313 296 256 247 247 241 255 248 276 300 268 333 333 343 328 313 279 267 251 232 260 263 233 260 354 59 64 6 2 8 336 330 328 327 322 316 307 297 287 261 227 199 187 177 176 173 169
298 305 300 311 320 314 310 298 258 234 257 243 235 247 292 298 293 308 328 321 323 319 339 304 263 278 294 247 237 348 354 358 330 305 294 306 307 310 310 309 312 310 304 303 295 269 253 216 197 173 166 170 165 162
293 289 293 310 318 314 304 224 253 244 237 235 249 253 297 300 298 327 323 322 315 327 321 315 308 272 279 300 329 338 303 297 297 296 293 297 297 300 298 295 297 300 294 300 296 267 258 217 190 172 165 163 157 153
285 277 290 298 297 305 255 228 223 261 247 271 279 283 277 304 327 330 324 328 324 319 315 299 273 294 278 343 338 325 320 322 319 313 304 296 286 288 291 290 292 290 284 292 292 266 240 206 186 165 151 146 149 147
294 290 292 272 267 249 248 224 224 259 275 312 275 271 296 332 317 346 358 4 4 21 356 307 304 303 299 307 305 294 297 302 298 297 293 289 293 297 290 283 284 288 281 290 278 216 167 145 150 139 143 142 137 139
310 302 281 272 264 224 261 260 229 246 288 274 279 287 303 315 294 273 21 41 47 15 342 315 319 323 306 295 286 286 289 291 285 283 286 292 295 297 289 283 282 280 260 250 190 175 162 149 143 151 143 126 135 172
261 270 244 288 230 251 258 234 257 318 268 271 288 266 260 254 262 92 3 70 76 18 323 339 346 346 339 359 339 299 292 289 288 284 288 293 300 307 336 304 285 243 270 247 219 185 167 163 160 166 182 202 173 148
254 249 235 224 236 239 263 217 244 235 245 259 258 193 209 221 252 175 25 49 87 149 26 50 54 43 37 45 56 78 71 77 83 79 80 79 77 70 82 89 98 103 56 145 177 173 157 160 173 189 170 161 162 169
224 224 236 216 204 254 217 217 219 268 255 264 265 269 95 185 233 234 162 121 142 134 161 124 34 39 56 62 72 73 77 84 80 76 73 70 77 73 70 75 77 77 65 70 86 97 106 126 150 162 148 164 176 195
244 231 211 243 222 226 247 229 219 231 255 244 275 59 256 164 231 219 151 150 111 103 162 135 319 49 65 62 70 71 73 54 56 62 65 71 82 81 86 86 76 75 79 79 82 86 95 110 112 117 104 88 107 125
240 210 200 218 206 210 233 236 211 239 261 282 246 227 261 192 236 153 167 134 138 123 151 149 144 79 65 61 49 56 75 58 77 62 67 88 81 72 71 71 68 67 89 81 75 76 83 78 63 73 93 90 97 105
249 232 209 234 275 240 258 261 249 284 222 251 265 252 224 241 144 145 145 146 133 115 107 108 53 84 85 88 78 74 83 85 95 85 87 88 90 92 91 82 67 61 61 63 69 72 71 74 78 85 107 109 97 63
243 263 238 217 215 242 237 270 207 249 236 146 329 293 255 8 71 161 164 160 145 145 120 112 119 82 82 91 143 157 112 110 106 105 96 89 83 79 74 67 55 57 65 74 67 67 71 74 75 76 75 74 71 43
231 225 227 251 226 220 222 221 226 243 192 175 256 322 342 15 163 167 159 163 165 180 164 133 135 151 120 97 33 115 149 147 114 116 104 97 86 75 72 72 63 55 50 51 59 63 73 81 77 74 76 76 67 61
232 229 218 223 222 218 230 199 277 257 260 339 306 280 211 198 173 162 168 167 175 174 155 138 196 103 137 146 98 89 110 88 116 111 107 104 96 83 75 69 63 56 52 58 61 61 68 70 68 71 72 71 70 70
224 198 217 236 215 216 214 218 205 223 234 288 334 355 127 153 163 176 182 177 177 186 180 179 169 110 103 87 88 108 94 89 95 101 107 106 96 86 73 64 59 53 51 58 65 72 75 73 68 64 62 63 62 62
211 216 208 229 198 167 185 215 199 198 226 210 179 150 153 158 148 181 191 191 195 196 197 177 166 145 130 107 101 72 89 109 110 119 120 108 103 88 81 74 64 58 61 64 64 68 73 72 67 61 58 60 62 65
215 206 222 204 165 167 218 194 186 244 254 233 182 215 167 175 182 175 192 193 196 199 190 187 152 171 145 119 121 109 114 116 132 143 142 130 124 107 64 50 53 53 62 63 69 70 71 71 69 65 60 58 57 58